Location: Arbon
(43.0005°N, 0.7472°E)
Time: 12:31:51
(UTC+00:00)

Vanguard 1 - Pass Details

Date: 02 December 2020
Orbit: 648 x 3834 km, 34.3° (Epoch: 23 January)

Event Time Altitude Azimuth Distance (km) Brightness Sun altitude
Rises 09:36:53 0° 271° (W) 4,588 13.2 18.4°
Reaches altitude 10° 09:39:55 10° 260° (W) 3,971 13.0 18.7°
Maximum altitude 09:49:11 31° 204° (SSW) 3,596 13.7 19.6°
Drops below altitude 10° 10:03:46 10° 152° (SSE) 6,271 16.5 20.8°
Sets 10:10:19 0° 143° (SE) 7,659 16.0 21.3°
